This is the latest recevied weather packets stored in our database for station/object WA1NHP. If no packets are shown the sender has not sent any weather packets the latest 10 day(s).
| Time | Temp. | Humidity | Pressure | Rain* | Wind** | Luminosity | Snow |
|---|---|---|---|---|---|---|---|
| 1788056644 | 12.78° C | 90% | 1023.9 hPa | 0 mm | - | 0 W/m² | - |
| 1788056044 | 12.78° C | 90% | 1023.9 hPa | 0 mm | - | 0 W/m² | - |
| 1788055444 | 12.78° C | 89% | 1023.9 hPa | 0 mm | - | 0 W/m² | - |
| 1788054843 | 13.33° C | 89% | 1023.9 hPa | 0 mm | - | 0 W/m² | - |
| 1788054244 | 13.33° C | 88% | 1023.9 hPa | 0 mm | - | 0 W/m² | - |
| 1788053644 | 13.33° C | 88% | 1023.9 hPa | 0 mm | - | 0 W/m² | - |
| 1788053043 | 13.33° C | 88% | 1023.9 hPa | 0 mm | - | 0 W/m² | - |
| 1788052444 | 13.89° C | 87% | 1023.9 hPa | 0 mm | - | 0 W/m² | - |
| 1788051844 | 14.44° C | 86% | 1023.9 hPa | 0 mm | - | 0 W/m² | - |
| 1788051243 | 14.44° C | 86% | 1023.9 hPa | 0 mm | - | 0 W/m² | - |
| 1788050644 | 14.44° C | 85% | 1023.9 hPa | 0 mm | - | 0 W/m² | - |
| 1788050044 | 15° C | 85% | 1023.9 hPa | 0 mm | - | 0 W/m² | - |
| 1788049444 | 15° C | 84% | 1023.9 hPa | 0 mm | - | 0 W/m² | - |
| 1788048844 | 15.56° C | 83% | 1023.9 hPa | 0 mm | - | 0 W/m² | - |
| 1788048244 | 15.56° C | 80% | 1023.9 hPa | 0 mm | - | 0 W/m² | - |
| 1788047644 | 16.11° C | 80% | 1023.9 hPa | 0 mm | - | 0 W/m² | - |
| 1788047044 | 16.67° C | 81% | 1023.9 hPa | 0 mm | - | 0 W/m² | - |
| 1788046444 | 16.67° C | 78% | 1023.9 hPa | 0 mm | - | 0 W/m² | - |
| 1788045844 | 17.22° C | 77% | 1023.9 hPa | 0 mm | - | 0 W/m² | - |
| 1788045244 | 17.78° C | 78% | 1023.9 hPa | 0 mm | - | 5 W/m² | - |
| 1788044643 | 17.78° C | 79% | 1023.9 hPa | 0 mm | - | 7 W/m² | - |
| 1788044044 | 18.33° C | 79% | 1023.9 hPa | 0 mm | - | 11 W/m² | - |
| 1788043444 | 18.89° C | 77% | 1023.9 hPa | 0 mm | - | 12 W/m² | - |
| 1788042843 | 19.44° C | 74% | 1023.9 hPa | 0 mm | - | 16 W/m² | - |
| 1788042245 | 19.44° C | 70% | 1023.9 hPa | 0 mm | - | 23 W/m² | - |
* Rain latest hour (hover to see other rain measurements)
** Current wind speed in m/s (hover to see current wind gust speed)